Voltar ao catálogo

FLOCK 4G 20

AtivoCiênciaPO
NORAD 62636·PAYLOAD·🇺🇸 United States

Lançado Jan 14, 2025 de Vandenberg Space Force Base

Loading…

Próximas Passagens (próximas 24 horas)

TLE

AtualizadoSource: Space-Track

Época: Sep 14, 2026, 05:14 UTC

1 62636U 25009AD  26257.21837609  .00159614  00000-0  10543-2 0  9998
2 62636  97.3777 345.7357 0001821 304.1748  55.9344 15.75119110 93034

Acompanhe FLOCK 4G 20 em tempo real com AllMySat

Download on the App Store